SSEC Globe Logo

Space Science and Engineering Center

Surface Aviation Observations

KAIG 142215Z AUTO 28009KT 10SM -DZ OVC016 03/01 A2999 RMK
     AO2 T00300010=
KAIG 142215Z AUTO 28009KT 10SM -DZ OVC016 03/01 A2999 RMK
     AO2 T00300010=
KAIG 142155Z AUTO 28008G16KT 10SM -DZ BKN020 OVC026 03/01
     A2999 RMK AO2 T00310005=
KAIG 142155Z AUTO 28008G16KT 10SM -DZ BKN020 OVC026 03/01
     A2999 RMK AO2 T00310005=
KC29 142215Z AUTO 00000KT 10SM OVC033 05/M02 A3008 RMK AO1
     T00501016=
KC29 142215Z AUTO 00000KT 10SM OVC033 05/M02 A3008 RMK AO1
     T00501016=
KC29 142155Z AUTO 30007KT 10SM OVC033 05/M02 A3008 RMK AO1
     T00511018=
KC29 142155Z AUTO 30007KT 10SM OVC033 05/M02 A3008 RMK AO1
     T00511018=
KBCK 142215Z AUTO 30006KT 10SM OVC035 05/M02 A3010 RMK AO2
     T00521016=
KBCK 142215Z AUTO 30006KT 10SM OVC035 05/M02 A3010 RMK AO2
     T00521016=
KBCK 142155Z AUTO 29008KT 10SM SCT028 OVC038 05/M02 A3010
     RMK AO2 T00511020=
KBCK 142155Z AUTO 29008KT 10SM SCT028 OVC038 05/M02 A3010
     RMK AO2 T00511020=
KUBE 142215Z AUTO 31011KT 10SM BKN026 OVC030 06/00 A3008 RMK
     AO2=
KUBE 142215Z AUTO 31011KT 10SM BKN026 OVC030 06/00 A3008 RMK
     AO2=
KUBE 142155Z AUTO 33012G17KT 10SM OVC028 06/00 A3009 RMK
     AO2=
KUBE 142155Z AUTO 33012G17KT 10SM OVC028 06/00 A3009 RMK
     AO2=
KPVB 142215Z AUTO 30011KT 10SM OVC031 05/M01 A3010 RMK AO1
     T00451007=
KPVB 142215Z AUTO 30011KT 10SM OVC031 05/M01 A3010 RMK AO1
     T00451007=
KPVB 142155Z AUTO 29012G16KT 10SM OVC031 05/M01 A3010 RMK
     AO1 T00461006=
KPVB 142155Z AUTO 29012G16KT 10SM OVC031 05/M01 A3010 RMK
     AO1 T00461006=
KEZS 142235Z AUTO 30007KT 10SM SCT039 BKN046 OVC060 08/00
     A2999 RMK AO2 T00791005=
KEZS 142215Z AUTO 28008KT 10SM SCT041 BKN060 08/M01 A2999
     RMK AO2 T00781009=
KEZS 142215Z AUTO 28008KT 10SM SCT041 BKN060 08/M01 A2999
     RMK AO2 T00781009=
KEZS 142155Z AUTO 28008KT 260V320 10SM BKN041 BKN050 OVC060
     08/00 A2999 RMK AO2 T00781005=
KEZS 142155Z AUTO 28008KT 260V320 10SM BKN041 BKN050 OVC060
     08/00 A2999 RMK AO2 T00781005=
KARV 142155Z AUTO 34006KT 310V010 10SM RA BKN008 OVC020
     04/M01 A3000 RMK AO2 P0002 T00401011=
KARV 142155Z AUTO 34006KT 310V010 10SM RA BKN008 OVC020
     04/M01 A3000 RMK AO2 P0002 T00401011=
KARV 142215Z AUTO 33009G16KT 10SM -DZ SCT011 BKN018 OVC035
     04/M01 A3000 RMK AO2 T00401010=
KARV 142215Z AUTO 33009G16KT 10SM -DZ SCT011 BKN018 OVC035
     04/M01 A3000 RMK AO2 T00401010=
KARV 142155Z AUTO 34006KT 310V010 10SM RA BKN008 OVC020
     04/M01 A3000 RMK AO2 P0002 T00401011=
KARV 142155Z AUTO 34006KT 310V010 10SM RA BKN008 OVC020
     04/M01 A3000 RMK AO2 P0002 T00401011=
KASX 142204Z AUTO 35008KT 10SM SCT027 SCT038 OVC046 08/02
     A3008 RMK AO2 T00780022=
KASX 142153Z AUTO 34008KT 10SM BKN028 OVC042 07/02 A3008 RMK
     AO2 SLP195 T00720017=
KASX 142153Z AUTO 34008KT 10SM BKN028 OVC042 07/02 A3008 RMK
     AO2 SLP195 T00720017=
KATW 142145Z 27009G17KT 10SM SCT037 BKN045 05/M05 A3001=
KATW 142145Z 27009G17KT 10SM SCT037 BKN045 05/M05 A3001=
KATW 142145Z 27009G17KT 10SM SCT037 BKN045 05/M05 A3001=
KAUW 142154Z AUTO 26011KT 10SM BKN038 OVC046 07/M02 A3000
     RMK AO2 SLP172 T00721022=
KAUW 142154Z AUTO 26011KT 10SM BKN038 OVC046 07/M02 A3000
     RMK AO2 SLP172 T00721022=
KBUU 142215Z AUTO 31010G15KT 10SM 05/M02 A3006 RMK AO2
     T00451021 PWINO=
KBUU 142215Z AUTO 31010G15KT 10SM 05/M02 A3006 RMK AO2
     T00451021 PWINO=
KBUU 142155Z AUTO 30009KT 10SM 05/M02 A3007 RMK AO2
     T00451022 PWINO=
KBUU 142155Z AUTO 30009KT 10SM 05/M02 A3007 RMK AO2
     T00451022 PWINO=
KCLI 142215Z AUTO 27010G15KT 10SM SCT039 BKN047 OVC055
     07/M02 A3000 RMK AO2 T00681020=
KCLI 142215Z AUTO 27010G15KT 10SM SCT039 BKN047 OVC055
     07/M02 A3000 RMK AO2 T00681020=
KCLI 142155Z AUTO 27011G15KT 10SM BKN038 BKN049 OVC060
     07/M02 A3001 RMK AO2 T00721019=
KCLI 142155Z AUTO 27011G15KT 10SM BKN038 BKN049 OVC060
     07/M02 A3001 RMK AO2 T00721019=
KCMY 142215Z AUTO 29009KT 10SM 04/M01 A3011 RMK AO2
     T00421009=
KCMY 142215Z AUTO 29009KT 10SM 04/M01 A3011 RMK AO2
     T00421009=
KCMY 142155Z AUTO 31011KT 10SM 05/M01 A3010 RMK AO2
     T00451011=
KCMY 142155Z AUTO 31011KT 10SM 05/M01 A3010 RMK AO2
     T00451011=
KCWA 142145Z 28008G15KT 10SM OVC036 05/M02 A3003=
KCWA 142145Z 28008G15KT 10SM OVC036 05/M02 A3003=
KCWA 142145Z 28008G15KT 10SM OVC036 05/M02 A3003=
KDLL 142155Z AUTO 31009G20KT 10SM BKN028 OVC036 03/M02 A3007
     RMK AO2 T00261023=
KDLL 142155Z AUTO 31009G20KT 10SM BKN028 OVC036 03/M02 A3007
     RMK AO2 T00261023=
KDLL 142215Z AUTO 32010G16KT 290V350 10SM SCT028 OVC038
     03/M02 A3007 RMK AO2 T00271022=
KDLL 142215Z AUTO 32010G16KT 290V350 10SM SCT028 OVC038
     03/M02 A3007 RMK AO2 T00271022=
KDLL 142155Z AUTO 31009G20KT 10SM BKN028 OVC036 03/M02 A3007
     RMK AO2 T00261023=
KDLL 142155Z AUTO 31009G20KT 10SM BKN028 OVC036 03/M02 A3007
     RMK AO2 T00261023=
KEAU 142156Z 33007KT 10SM OVC045 07/M02 A3008 RMK AO2 SLP195
     T00721017=
KEAU 142156Z 33007KT 10SM OVC045 07/M02 A3008 RMK AO2 SLP195
     T00721017=
KEFT 142215Z AUTO 33010KT 10SM OVC032 04/M03 A3007 RMK AO2
     T00431030=
KEFT 142215Z AUTO 33010KT 10SM OVC032 04/M03 A3007 RMK AO2
     T00431030=
KEFT 142155Z AUTO 31013KT 10SM OVC030 04/M03 A3007 RMK AO2
     T00421030=
KEFT 142155Z AUTO 31013KT 10SM OVC030 04/M03 A3007 RMK AO2
     T00421030=
KEGV 142215Z AUTO 32011G15KT 7SM -RA BKN010 OVC014 02/02
     A2999 RMK AO2 T00230021=
KEGV 142215Z AUTO 32011G15KT 7SM -RA BKN010 OVC014 02/02
     A2999 RMK AO2 T00230021=
KEGV 142155Z AUTO 32008KT 7SM -RA SCT010 OVC014 02/02 A2998
     RMK AO2 T00240021=
KEGV 142155Z AUTO 32008KT 7SM -RA SCT010 OVC014 02/02 A2998
     RMK AO2 T00240021=
KENW 142153Z 32009G18KT 10SM OVC041 06/M03 A3006 RMK AO2
     SLP185 T00611028=
KENW 142153Z 32009G18KT 10SM OVC041 06/M03 A3006 RMK AO2
     SLP185 T00611028=
KETB 142215Z AUTO 28010G18KT 10SM OVC034 03/M03 A3005 RMK
     AO2=
KETB 142215Z AUTO 28010G18KT 10SM OVC034 03/M03 A3005 RMK
     AO2=
KETB 142155Z AUTO 29010G14KT 10SM OVC032 03/M03 A3005 RMK
     AO2=
KETB 142155Z AUTO 29010G14KT 10SM OVC032 03/M03 A3005 RMK
     AO2=
KFLD 142153Z AUTO 30009KT 10SM OVC035 05/M03 A3005 RMK AO2
     SLP181 T00501033=
KFLD 142153Z AUTO 30009KT 10SM OVC035 05/M03 A3005 RMK AO2
     SLP181 T00501033=
KGRB 142153Z 28012KT 10SM FEW039 OVC065 07/M01 A3000 RMK AO2
     SLP165 T00721011=
KGRB 142153Z 28012KT 10SM FEW039 OVC065 07/M01 A3000 RMK AO2
     SLP165 T00721011=
KHYR 142207Z AUTO 32005KT 10SM -RA SCT024 BKN030 OVC045
     06/01 A3007 RMK AO2 RAB2154 P0000 T00610011=
KHYR 142153Z AUTO VRB06KT 10SM BKN026 OVC032 07/01 A3007 RMK
     AO2 RAE00 SLP197 P0000 T00670006=
KHYR 142153Z AUTO VRB06KT 10SM BKN026 OVC032 07/01 A3007 RMK
     AO2 RAE00 SLP197 P0000 T00670006=
KISW 142154Z AUTO 30011KT 10SM OVC033 04/M02 A3006 RMK AO2
     SLP191 T00441022=
KISW 142154Z AUTO 30011KT 10SM OVC033 04/M02 A3006 RMK AO2
     SLP191 T00441022=
KJVL 142145Z 29010KT 10SM OVC038 06/M03 A3007=
KJVL 142145Z 29010KT 10SM OVC038 06/M03 A3007=
KLNL 142215Z AUTO 33009G14KT 2 1/2SM -SN BKN008 OVC016 02/01
     A3000 RMK AO2 T00180010=
KLNL 142215Z AUTO 33009G14KT 2 1/2SM -SN BKN008 OVC016 02/01
     A3000 RMK AO2 T00180010=
KLNL 142155Z AUTO 32007KT 300V360 3SM -SN OVC008 02/01 A3000
     RMK AO2 P0001 T00180010=
KLNL 142155Z AUTO 32007KT 300V360 3SM -SN OVC008 02/01 A3000
     RMK AO2 P0001 T00180010=
KLNR 142156Z AUTO 31009KT 10SM OVC036 05/M02 A3010 RMK AO2
     SLP194 T00501022=
KLNR 142156Z AUTO 31009KT 10SM OVC036 05/M02 A3010 RMK AO2
     SLP194 T00501022=
KLSE 142153Z 32012KT 10SM FEW029 OVC035 06/M01 A3012 RMK AO2
     SLP207 T00561006=
KLSE 142153Z 32012KT 10SM FEW029 OVC035 06/M01 A3012 RMK AO2
     SLP207 T00561006=
KLUM 142155Z AUTO 30007KT 10SM SCT041 OVC046 06/M02 A3009
     RMK AO2 T00601019=
KLUM 142155Z AUTO 30007KT 10SM SCT041 OVC046 06/M02 A3009
     RMK AO2 T00601019=
KLUM 142215Z AUTO 29006KT 10SM OVC046 06/M01 A3009 RMK AO2
     T00611015=
KLUM 142215Z AUTO 29006KT 10SM OVC046 06/M01 A3009 RMK AO2
     T00611015=
KLUM 142155Z AUTO 30007KT 10SM SCT041 OVC046 06/M02 A3009
     RMK AO2 T00601019=
KLUM 142155Z AUTO 30007KT 10SM SCT041 OVC046 06/M02 A3009
     RMK AO2 T00601019=
KMDZ 142155Z AUTO 29009G19KT 10SM SCT032 BKN042 BKN075
     05/M01 A3001 RMK AO2 T00461011=
KMDZ 142155Z AUTO 29009G19KT 10SM SCT032 BKN042 BKN075
     05/M01 A3001 RMK AO2 T00461011=
KMDZ 142215Z AUTO 28012KT 10SM BKN036 OVC043 05/M01 A3001
     RMK AO2 T00521008=
KMDZ 142215Z AUTO 28012KT 10SM BKN036 OVC043 05/M01 A3001
     RMK AO2 T00521008=
KMDZ 142155Z AUTO 29009G19KT 10SM SCT032 BKN042 BKN075
     05/M01 A3001 RMK AO2 T00461011=
KMDZ 142155Z AUTO 29009G19KT 10SM SCT032 BKN042 BKN075
     05/M01 A3001 RMK AO2 T00461011=
KMFI 142154Z AUTO 28010G19KT 10SM BKN033 06/M02 A3004 RMK
     AO2 SLP187 T00561017=
KMFI 142154Z AUTO 28010G19KT 10SM BKN033 06/M02 A3004 RMK
     AO2 SLP187 T00561017=
KMFI 142146Z AUTO 29011KT 10SM SCT028 BKN033 06/M02 A3004
     RMK AO2 T00561017=
KMKE 142152Z 29011KT 10SM OVC036 06/M04 A3006 RMK AO2 SLP185
     T00561039=
KMKE 142152Z 29011KT 10SM OVC036 06/M04 A3006 RMK AO2 SLP185
     T00561039=
KMRJ 142215Z AUTO 29010G14KT 10SM SCT026 OVC032 04/M02 A3009
     RMK AO2=
KMRJ 142155Z AUTO 31006KT 10SM BKN028 OVC034 05/M02 A3009
     RMK AO2=
KMRJ 142155Z AUTO 31006KT 10SM BKN028 OVC034 05/M02 A3009
     RMK AO2=
KMSN 142153Z 31011G19KT 10SM OVC035 04/M03 A3007 RMK AO2
     SLP189 T00441033=
KMSN 142153Z 31011G19KT 10SM OVC035 04/M03 A3007 RMK AO2
     SLP189 T00441033=
KMTW 142156Z AUTO 27012KT 10SM FEW036 07/M02 A3001 RMK AO2
     SLP169 T00721017=
KMTW 142156Z AUTO 27012KT 10SM FEW036 07/M02 A3001 RMK AO2
     SLP169 T00721017=
KMWC 142145Z 31011KT 10SM OVC035 04/M05 A3007=
KMWC 142145Z 31011KT 10SM OVC035 04/M05 A3007=
KMWC 142145Z 31011KT 10SM OVC035 04/M05 A3007=
KMWC 142145Z 31011KT 10SM OVC035 04/M05 A3007=
KOEO 142215Z AUTO 32007KT 10SM SCT025 BKN032 OVC039 07/02
     A3015 RMK AO2 T00660020=
KOEO 142215Z AUTO 32007KT 10SM SCT025 BKN032 OVC039 07/02
     A3015 RMK AO2 T00660020=
KOEO 142155Z AUTO 32010KT 10SM -DZ OVC025 07/02 A3015 RMK
     AO2 T00660020=
KOEO 142155Z AUTO 32010KT 10SM -DZ OVC025 07/02 A3015 RMK
     AO2 T00660020=
KOSH 142153Z 29010G17KT 10SM OVC039 04/M02 A3004 RMK AO2
     SLP180 T00441022=
KOSH 142153Z 29010G17KT 10SM OVC039 04/M02 A3004 RMK AO2
     SLP180 T00441022=
KOVS 142153Z AUTO 29009KT 10SM BKN033 OVC039 06/M02 A3012
     RMK AO2 SLP206 T00561017=
KOVS 142153Z AUTO 29009KT 10SM BKN033 OVC039 06/M02 A3012
     RMK AO2 SLP206 T00561017=
KPBH 142155Z AUTO 34008KT 10SM -RA BKN035 OVC044 06/00 A3001
     RMK AO2 T00560000=
KPBH 142155Z AUTO 34008KT 10SM -RA BKN035 OVC044 06/00 A3001
     RMK AO2 T00560000=
KPBH 142215Z AUTO 32008G16KT 10SM SCT032 BKN037 OVC046 06/00
     A3001 RMK AO2 T00570000=
KPBH 142215Z AUTO 32008G16KT 10SM SCT032 BKN037 OVC046 06/00
     A3001 RMK AO2 T00570000=
KPBH 142155Z AUTO 34008KT 10SM -RA BKN035 OVC044 06/00 A3001
     RMK AO2 T00560000=
KPBH 142155Z AUTO 34008KT 10SM -RA BKN035 OVC044 06/00 A3001
     RMK AO2 T00560000=
KPCZ 142155Z AUTO 27008KT 10SM OVC040 07/M02 A3004 RMK AO2
     T00651024=
KPCZ 142155Z AUTO 27008KT 10SM OVC040 07/M02 A3004 RMK AO2
     T00651024=
KPCZ 142215Z AUTO 27010KT 10SM OVC040 07/M02 A3004 RMK AO2
     T00651025=
KPCZ 142215Z AUTO 27010KT 10SM OVC040 07/M02 A3004 RMK AO2
     T00651025=
KPCZ 142155Z AUTO 27008KT 10SM OVC040 07/M02 A3004 RMK AO2
     T00651024=
KPCZ 142155Z AUTO 27008KT 10SM OVC040 07/M02 A3004 RMK AO2
     T00651024=
KPDC 142155Z AUTO 30010G16KT 10SM OVC032 05/M03 A3013 RMK
     AO2 T00451026=
KPDC 142215Z AUTO 30009G15KT 10SM SCT029 OVC038 05/M02 A3013
     RMK AO2 T00481025=
KPDC 142215Z AUTO 30009G15KT 10SM SCT029 OVC038 05/M02 A3013
     RMK AO2 T00481025=
KPDC 142155Z AUTO 30010G16KT 10SM OVC032 05/M03 A3013 RMK
     AO2 T00451026=
KPDC 142155Z AUTO 30010G16KT 10SM OVC032 05/M03 A3013 RMK
     AO2 T00451026=
KRAC 142153Z AUTO 29011G19KT 10SM OVC039 06/M03 A3007 RMK
     AO2 SLP190 T00561033=
KRAC 142153Z AUTO 29011G19KT 10SM OVC039 06/M03 A3007 RMK
     AO2 SLP190 T00561033=
KRCX 142155Z AUTO 29009KT 10SM 09/01 A3005 RMK AO2
     T00870010=
KRCX 142155Z AUTO 29009KT 10SM 09/01 A3005 RMK AO2
     T00870010=
KRCX 142215Z AUTO 30010G17KT 10SM 08/01 A3005 RMK AO2
     T00800005=
KRCX 142215Z AUTO 30010G17KT 10SM 08/01 A3005 RMK AO2
     T00800005=
KRCX 142155Z AUTO 29009KT 10SM 09/01 A3005 RMK AO2
     T00870010=
KRCX 142155Z AUTO 29009KT 10SM 09/01 A3005 RMK AO2
     T00870010=
KRHI 142153Z AUTO 32006KT 4SM -RA BR SCT008 OVC014 03/01
     A3000 RMK AO2 SLP177 P0004 T00280011=
KRHI 142153Z AUTO 32006KT 4SM -RA BR SCT008 OVC014 03/01
     A3000 RMK AO2 SLP177 P0004 T00280011=
KRNH 142215Z AUTO 33012KT 10SM OVC027 07/01 A3011 RMK AO2
     T00670005=
KRNH 142215Z AUTO 33012KT 10SM OVC027 07/01 A3011 RMK AO2
     T00670005=
KRNH 142155Z AUTO 32012G17KT 10SM BKN031 OVC037 07/00 A3010
     RMK AO2 T00720001=
KRNH 142155Z AUTO 32012G17KT 10SM BKN031 OVC037 07/00 A3010
     RMK AO2 T00720001=
KRPD 142235Z AUTO 33008KT 10SM SCT024 BKN035 OVC042 07/02
     A3009 RMK AO2 T00670016=
KRPD 142215Z AUTO 29011G14KT 10SM SCT033 OVC040 07/01 A3009
     RMK AO2 T00700006=
KRPD 142215Z AUTO 29011G14KT 10SM SCT033 OVC040 07/01 A3009
     RMK AO2 T00700006=
KRPD 142155Z AUTO 31009G14KT 280V340 10SM OVC038 07/00 A3009
     RMK AO2 T00730001=
KRPD 142155Z AUTO 31009G14KT 280V340 10SM OVC038 07/00 A3009
     RMK AO2 T00730001=
KRRL 142155Z AUTO 31009KT 10SM BKN031 OVC037 05/00 A3000 RMK
     AO2 T00511002 TSNO=
KRRL 142155Z AUTO 31009KT 10SM BKN031 OVC037 05/00 A3000 RMK
     AO2 T00511002 TSNO=
KRRL 142215Z AUTO 30011KT 10SM BKN031 OVC038 06/00 A2999 RMK
     AO2 T00561002 TSNO=
KRRL 142215Z AUTO 30011KT 10SM BKN031 OVC038 06/00 A2999 RMK
     AO2 T00561002 TSNO=
KRRL 142155Z AUTO 31009KT 10SM BKN031 OVC037 05/00 A3000 RMK
     AO2 T00511002 TSNO=
KRRL 142155Z AUTO 31009KT 10SM BKN031 OVC037 05/00 A3000 RMK
     AO2 T00511002 TSNO=
KRYV 142215Z AUTO 29010KT 10SM OVC032 04/M02 A3007 RMK AO2
     T00361025=
KRYV 142215Z AUTO 29010KT 10SM OVC032 04/M02 A3007 RMK AO2
     T00361025=
KRYV 142155Z AUTO 30009KT 10SM OVC032 04/M02 A3007 RMK AO2
     T00381022=
KRYV 142155Z AUTO 30009KT 10SM OVC032 04/M02 A3007 RMK AO2
     T00381022=
KRZN 142215Z AUTO 33008KT 10SM SCT025 BKN034 OVC048 07/02
     A3010 RMK AO2 T00660021=
KRZN 142215Z AUTO 33008KT 10SM SCT025 BKN034 OVC048 07/02
     A3010 RMK AO2 T00660021=
KRZN 142155Z AUTO 32011KT 10SM SCT023 BKN030 OVC048 07/01
     A3010 RMK AO2 T00690014=
KRZN 142155Z AUTO 32011KT 10SM SCT023 BKN030 OVC048 07/01
     A3010 RMK AO2 T00690014=
KSBM 142153Z AUTO 27014G21KT 10SM OVC039 06/M02 A3003 RMK
     AO2 SLP175 T00561022=
KSBM 142153Z AUTO 27014G21KT 10SM OVC039 06/M02 A3003 RMK
     AO2 SLP175 T00561022=
KSTE 142215Z AUTO 25010KT 10SM SCT032 OVC041 04/M02 A3003
     RMK AO2 T00401024=
KSTE 142155Z AUTO 27007KT 10SM BKN032 OVC039 04/M02 A3004
     RMK AO2 T00391025=
KSTE 142155Z AUTO 27007KT 10SM BKN032 OVC039 04/M02 A3004
     RMK AO2 T00391025=
KSUE 142156Z AUTO 03005KT 10SM -RA OVC035 04/01 A2999 RMK
     AO2 SLP161 P0000 T00440011=
KSUE 142156Z AUTO 03005KT 10SM -RA OVC035 04/01 A2999 RMK
     AO2 SLP161 P0000 T00440011=
KSUW 142155Z AUTO 32009KT 10SM OVC038 07/01 A3010 RMK AO2
     T00700012=
KSUW 142215Z AUTO 30010G15KT 10SM SCT029 BKN036 OVC043 07/02
     A3010 RMK AO2 T00710019=
KSUW 142215Z AUTO 30010G15KT 10SM SCT029 BKN036 OVC043 07/02
     A3010 RMK AO2 T00710019=
KSUW 142155Z AUTO 32009KT 10SM OVC038 07/01 A3010 RMK AO2
     T00700012=
KSUW 142155Z AUTO 32009KT 10SM OVC038 07/01 A3010 RMK AO2
     T00700012=
KTKV 142215Z AUTO 31006G14KT 5SM SCT018 BKN025 OVC030 03/00
     A3001 RMK AO2 T00310004 PWINO=
KTKV 142215Z AUTO 31006G14KT 5SM SCT018 BKN025 OVC030 03/00
     A3001 RMK AO2 T00310004 PWINO=
KTKV 142155Z AUTO 31008KT 7SM BKN027 OVC032 04/00 A3001 RMK
     AO2 T00390002 PWINO=
KTKV 142155Z AUTO 31008KT 7SM BKN027 OVC032 04/00 A3001 RMK
     AO2 T00390002 PWINO=
KUES 142145Z 29012KT 10SM OVC033 03/M03 A3007=
KUES 142145Z 29012KT 10SM OVC033 03/M03 A3007=
KUNU 142155Z AUTO 29004KT 10SM OVC032 03/M03 A3007 RMK AO2
     T00331026=
KUNU 142215Z AUTO 28004KT 10SM OVC032 03/M03 A3007 RMK AO2
     T00321026=
KUNU 142215Z AUTO 28004KT 10SM OVC032 03/M03 A3007 RMK AO2
     T00321026=
KUNU 142155Z AUTO 29004KT 10SM OVC032 03/M03 A3007 RMK AO2
     T00331026=
KUNU 142155Z AUTO 29004KT 10SM OVC032 03/M03 A3007 RMK AO2
     T00331026=
KVOK 142156Z 29009KT 10SM BKN028 OVC036 05/M01 A3007 RMK
     AO2A SLP195=
METAR KVOK 142156Z 29009KT 10SM BKN028 OVC036 05/M01 A3007
     RMK AO2A SLP195=
KVOK 142156Z 29009KT 10SM BKN028 OVC036 05/M01 A3007 RMK
     AO2A SLP195=
KVOK 142156Z 29009KT 10SM BKN028 OVC036 05/M01 A3007 RMK
     AO2A SLP195=
METAR KVOK 142156Z 29009KT 10SM BKN028 OVC036 05/M01 A3007
     RMK AO2A SLP195=
KY50 142156Z AUTO 27009KT 10SM OVC037 04/M02 A3006 RMK AO2
     SLP185 T00441022 $=
KY50 142156Z AUTO 27009KT 10SM OVC037 04/M02 A3006 RMK AO2
     SLP185 T00441022 $=
KY51 142155Z AUTO 30009G14KT 10SM BKN022 BKN027 OVC034 03/00
     A3009 RMK AO1 T00330002=
KY51 142155Z AUTO 30009G14KT 10SM BKN022 BKN027 OVC034 03/00
     A3009 RMK AO1 T00330002=
KY51 142215Z AUTO 31011KT 10SM SCT022 OVC032 03/00 A3009 RMK
     AO1 T00310000=
KY51 142215Z AUTO 31011KT 10SM SCT022 OVC032 03/00 A3009 RMK
     AO1 T00310000=
KY51 142155Z AUTO 30009G14KT 10SM BKN022 BKN027 OVC034 03/00
     A3009 RMK AO1 T00330002=
KY51 142155Z AUTO 30009G14KT 10SM BKN022 BKN027 OVC034 03/00
     A3009 RMK AO1 T00330002=
KY23 142215Z AUTO 32007G15KT 250V010 10SM OVC042 07/01 A3008
     RMK AO2 T00720008=
KY23 142215Z AUTO 32007G15KT 250V010 10SM OVC042 07/01 A3008
     RMK AO2 T00720008=
KY23 142155Z AUTO 32005KT 10SM OVC042 08/00 A3007 RMK AO2
     T00750002=
KY23 142155Z AUTO 32005KT 10SM OVC042 08/00 A3007 RMK AO2
     T00750002=
K3D2 142215Z AUTO 29004KT 10SM BKN014 BKN028 OVC065 04/01
     A2997 RMK AO2 T00390007=
K3D2 142215Z AUTO 29004KT 10SM BKN014 BKN028 OVC065 04/01
     A2997 RMK AO2 T00390007=
K3D2 142155Z AUTO 27004KT 10SM SCT012 BKN018 OVC049 04/01
     A2998 RMK AO2 T00400011=
K3D2 142155Z AUTO 27004KT 10SM SCT012 BKN018 OVC049 04/01
     A2998 RMK AO2 T00400011=
K4R5 142215Z AUTO 34007KT 10SM OVC043 07/02 A3007 RMK AO2
     T00670017=
K4R5 142215Z AUTO 34007KT 10SM OVC043 07/02 A3007 RMK AO2
     T00670017=
K4R5 142155Z AUTO 35005KT 10SM SCT038 OVC045 07/02 A3007 RMK
     AO2 T00700017=
K4R5 142155Z AUTO 35005KT 10SM SCT038 OVC045 07/02 A3007 RMK
     AO2 T00700017=
KD25 142215Z AUTO 34007G15KT 5SM DZ OVC010 03/03 A3002 RMK
     AO2 T00250025=
KD25 142215Z AUTO 34007G15KT 5SM DZ OVC010 03/03 A3002 RMK
     AO2 T00250025=
KD25 142155Z AUTO 33008KT 10SM DZ OVC010 03/02 A3001 RMK AO2
     T00250023=
KD25 142155Z AUTO 33008KT 10SM DZ OVC010 03/02 A3001 RMK AO2
     T00250023=
K82C 142215Z AUTO 30008KT 10SM OVC035 05/M01 A3008 RMK AO2
     T00451009=
K82C 142215Z AUTO 30008KT 10SM OVC035 05/M01 A3008 RMK AO2
     T00451009=
K82C 142155Z AUTO 29008KT 10SM SCT028 BKN035 OVC042 05/M01
     A3007 RMK AO2 T00451008=
K82C 142155Z AUTO 29008KT 10SM SCT028 BKN035 OVC042 05/M01
     A3007 RMK AO2 T00451008=
KOCQ 142215Z AUTO 31006KT 10SM OVC040 06/M01 A2999 RMK AO1
     T00621006=
KOCQ 142215Z AUTO 31006KT 10SM OVC040 06/M01 A2999 RMK AO1
     T00621006=
KOCQ 142155Z AUTO 29008KT 10SM OVC040 07/M01 A2999 RMK AO1
     T00651012=
KOCQ 142155Z AUTO 29008KT 10SM OVC040 07/M01 A2999 RMK AO1
     T00651012=
KC35 142215Z AUTO 27008KT 10SM BKN034 OVC040 04/M02 A3008
     RMK AO2 T00371019 PWINO=
KC35 142215Z AUTO 27008KT 10SM BKN034 OVC040 04/M02 A3008
     RMK AO2 T00371019 PWINO=
KC35 142155Z AUTO 28008KT 10SM SCT028 OVC034 04/M02 A3008
     RMK AO2 T00361017 PWINO=
KC35 142155Z AUTO 28008KT 10SM SCT028 OVC034 04/M02 A3008
     RMK AO2 T00361017 PWINO=
KOLG 142215Z AUTO 34008KT 10SM SCT023 BKN029 OVC048 06/01
     A3008 RMK AO1=
KOLG 142215Z AUTO 34008KT 10SM SCT023 BKN029 OVC048 06/01
     A3008 RMK AO1=
KOLG 142155Z AUTO 33008KT 10SM SCT019 BKN038 OVC048 06/02
     A3008 RMK AO1=
KOLG 142155Z AUTO 33008KT 10SM SCT019 BKN038 OVC048 06/02
     A3008 RMK AO1=
K2P2 142215Z AUTO 26006KT 10SM SCT030 BKN060 OVC095 04/01
     A2998 RMK AO2 T00390011=
K2P2 142215Z AUTO 26006KT 10SM SCT030 BKN060 OVC095 04/01
     A2998 RMK AO2 T00390011=
K2P2 142155Z AUTO 24004KT 10SM SCT040 SCT048 OVC095 04/01
     A2998 RMK AO2 T00350010=
K2P2 142155Z AUTO 24004KT 10SM SCT040 SCT048 OVC095 04/01
     A2998 RMK AO2 T00350010=
KDBQ 142153Z 34012KT 10SM OVC038 06/M01 A3009 RMK AO2 SLP201
     T00611011=
KDBQ 142153Z 34012KT 10SM OVC038 06/M01 A3009 RMK AO2 SLP201
     T00611011=
KRST 142205Z 31010KT 10SM FEW021 BKN035 OVC045 06/00 A3012
     RMK AO2 T00560000 $=
KRST 142154Z 33010KT 10SM BKN024 BKN031 OVC041 04/M01 A3012
     RMK AO2 SLP214 T00391006 $=
KRST 142154Z 33010KT 10SM BKN024 BKN031 OVC041 04/M01 A3012
     RMK AO2 SLP214 T00391006 $=
KMSP 142153Z 31011KT 10SM OVC034 08/01 A3013 RMK AO2 SLP209
     T00780011=
KMSP 142153Z 31011KT 10SM OVC034 08/01 A3013 RMK AO2 SLP209
     T00780011=
KRFD 142154Z 31014KT 10SM OVC035 07/M03 A3010 RMK AO2 SLP198
     T00671028=
KRFD 142154Z 31014KT 10SM OVC035 07/M03 A3010 RMK AO2 SLP198
     T00671028=
KORD 142151Z 30012G19KT 10SM OVC050 09/M02 A3003 RMK AO2
     SLP173 T00891022=
KORD 142151Z 30012G19KT 10SM OVC050 09/M02 A3003 RMK AO2
     SLP173 T00891022=
KORD 142151Z 30012G19KT 10SM OVC050 09/M02 A3003 RMK AO2
     SLP173 T00891022=
KORD 142151Z 30012G19KT 10SM OVC050 09/M02 A3003 RMK AO2
     SLP173 T00891022=